Regional Weather Roundup
Issued by NWS

Home | Current Version | Previous Version | Graphics & Text | Print | Product List | Glossary On
Versions: 1 2 3 4 5 6 7 8 9 10 11 12 13 14 15 16 17 18 19 20 21 22 23 24 25 26 27 28 29 30 31 32 33 34 35 36 37 38 39 40 41 42 43 44 45 46 47 48 49 50
000
ASUS43 KOAX 152210
RWRNE

WEATHER ROUNDUP FOR NEBRASKA
NATIONAL WEATHER SERVICE OMAHA NE
400 PM CST SUN JAN 15 2017

NOTES: SATELLITE DATA IS BEING USED TO AUGMENT CLOUD COVER ABOVE
       12000 FEET.
       "FAIR" INDICATES FEW OR NO CLOUDS BELOW 12,000 FEET WITH NO
       SIGNIFICANT WEATHER AND/OR OBSTRUCTIONS TO VISIBILITY.

  * THESE STATIONS DO NOT REPORT WEATHER SUCH AS RAIN...SNOW OR FOG.

NEZ001>004-019>022-054>056-152300-
NEBRASKA PANHANDLE

CITY           SKY/WX    TMP DP  RH WIND       PRES   REMARKS
SCOTTSBLUFF    CLOUDY    39  25  57 NW5       30.01F
ALLIANCE       CLOUDY    40  18  41 CALM      30.00F
CHADRON        CLOUDY    31  23  72 CALM      30.04F
KIMBALL        CLOUDY    37  23  56 NE6       29.98F WCI  32
SIDNEY         CLOUDY    34  23  64 E6        30.00S WCI  29
$$

NEZ057>060-069>072-079>082-152300-
SOUTHWEST NEBRASKA

CITY           SKY/WX    TMP DP  RH WIND       PRES   REMARKS
NORTH PLATTE   MIX PCPN  32  27  81 S3        30.06F
IMPERIAL       FRZ RAIN  30  28  92 SE5       30.04S FOG     WCI  25
LEXINGTON      MIX PCPN  31  28  91 CALM      30.10S
MCCOOK         FRZ RAIN  31  30  96 E6        30.08S FOG     WCI  25
OGALLALA       DRIZZLE   32  28  84 S6        30.04S WCI  26
$$

NEZ005>010-023>029-035>040-094-152300-
NORTH CENTRAL NEBRASKA

CITY           SKY/WX    TMP DP  RH WIND       PRES   REMARKS
VALENTINE      CLOUDY    45  18  34 SE5       30.05S
AINSWORTH      CLOUDY    40  27  59 S5        30.06F
BROKEN BOW     CLOUDY    33  26  75 SE7       30.08S WCI  27
O`NEILL        SUNNY     38  24  57 S3        30.10S
ORD            CLOUDY    33  23  66 S7        30.11S WCI  27
THEDFORD       CLOUDY    38  25  58 CALM      30.05S
$$

NEZ041-046>049-061>064-073>077-083>087-152300-
SOUTH CENTRAL NEBRASKA

CITY           SKY/WX    TMP DP  RH WIND       PRES   REMARKS
GRAND ISLAND   FRZ RAIN  30  30 100 E5        30.13F FOG     WCI  25
AURORA         MIX PCPN  30  29  96 SE3       30.15S
HASTINGS       FRZ RAIN  30  28  92 E5        30.13F FOG     WCI  25
HEBRON         MIX PCPN  31  29  94 E7        30.15F WCI  24
HOLDREGE       CLOUDY    30  29  94 SE5       30.10S WCI  25
KEARNEY *      CLOUDY    30  27  86 CALM      30.12S
YORK           CLOUDY    30  30 100 CALM      30.15F FOG
$$

NEZ011>018-030>034-042>045-152300-
NORTHEAST NEBRASKA

CITY           SKY/WX    TMP DP  RH WIND       PRES   REMARKS
NORFOLK        CLOUDY    33  22  63 S8        30.15S WCI  26
ALBION         CLOUDY    33  24  72 S6        30.15S WCI  27
BLAIR          MIX PCPN  31  28  87 SE3       30.20S
FREMONT        MIX PCPN  31  29  90 CALM      30.20S
TEKAMAH        CLOUDY    35  21  56 S9        30.21R WCI  28
WAYNE          CLOUDY    34  23  65 S7        30.17S WCI  28
$$

NEZ050>053-065>068-078-088>093-152300-
SOUTHEAST NEBRASKA

CITY           SKY/WX    TMP DP  RH WIND       PRES   REMARKS
LINCOLN        FRZ RAIN  31  29  92 E7        30.20F FOG     WCI  24
OMAHA EPPLEY   FRZ RAIN  32  26  78 SE6       30.22S FOG     WCI  26
BEATRICE       LGT SNOW  32  30  95 E6        30.17S WCI  26
FALLS CITY     FRZ RAIN  31  30  96 E7        30.20F FOG     WCI  24
NEBRASKA CITY  MIX PCPN  31  30  98 E6        30.20F WCI  25
PLATTSMOUTH    MIX PCPN  31  27  85 E5        30.21S WCI  26
$$

NEZ044-045-051>053-067-152300-
OMAHA AREA

CITY           SKY/WX    TMP DP  RH WIND       PRES   REMARKS
OMAHA EPPLEY   FRZ RAIN  32  26  78 SE6       30.22S FOG     WCI  26
BLAIR          MIX PCPN  31  28  87 SE3       30.20S
FREMONT        MIX PCPN  31  29  90 CALM      30.20S
MILLARD        MIX PCPN  33  29  87 E5        30.21F WCI  28
PLATTSMOUTH    MIX PCPN  31  27  85 E5        30.21S WCI  26
WAHOO          MIX PCPN  31  28  91 SE5       30.20S WCI  26
$$




USA.gov is the U.S. government's official web portal to all federal, state and local government web resources and services.